| time (UTC) | temp F | wind direction | speed MPH | gust MPH | rain 1hr in | rain 24hr in | rain mn in | humidity % | barometer mb |
| 20260906190007 | 86 | 66 | 3.0 | 5.0 | 0.00 | 0.00 | 0.00 | 42 | 1019.1 |
| 20260906185004 | 86 | 100 | 2.0 | 4.0 | 0.00 | 0.00 | 0.00 | 42 | 1019.2 |
| 20260906184005 | 86 | 77 | 3.0 | 5.0 | 0.00 | 0.00 | 0.00 | 41 | 1019.1 |
| 20260906183004 | 87 | 98 | 3.0 | 5.0 | 0.00 | 0.00 | 0.00 | 40 | 1019.0 |
| 20260906182005 | 87 | 49 | 3.0 | 5.0 | 0.00 | 0.00 | 0.00 | 42 | 1019.0 |
| 20260906181028 | 87 | 103 | 5.0 | 7.0 | 0.00 | 0.00 | 0.00 | 42 | 1018.7 |
| 20260906175006 | 87 | 102 | 3.0 | 5.0 | 0.00 | 0.00 | 0.00 | 41 | 1019.1 |
| 20260906173006 | 88 | 110 | 4.0 | 6.0 | 0.00 | 0.00 | 0.00 | 41 | 1019.0 |
| 20260906172004 | 88 | 112 | 5.0 | 8.0 | 0.00 | 0.00 | 0.00 | 41 | 1018.9 |
| 20260906171007 | 89 | 131 | 6.0 | 9.0 | 0.00 | 0.00 | 0.00 | 40 | 1018.8 |
| 20260906170006 | 89 | 122 | 5.0 | 9.0 | 0.00 | 0.00 | 0.00 | 40 | 1018.7 |
| 20260906165004 | 90 | 127 | 7.0 | 11.0 | 0.00 | 0.00 | 0.00 | 38 | 1018.6 |
| 20260906164006 | 91 | 113 | 6.0 | 9.0 | 0.00 | 0.00 | 0.00 | 34 | 1018.6 |
| 20260906163006 | 91 | 120 | 8.0 | 12.0 | 0.00 | 0.00 | 0.00 | 34 | 1018.6 |
| 20260906155005 | 94 | 116 | 7.0 | 12.0 | 0.00 | 0.00 | 0.00 | 29 | 1018.6 |
| 20260906154004 | 95 | 131 | 7.0 | 11.0 | 0.00 | 0.00 | 0.00 | 30 | 1018.7 |
| 20260906153011 | 94 | 118 | 8.0 | 12.0 | 0.00 | 0.00 | 0.00 | 31 | 1018.6 |
| 20260906152004 | 93 | 119 | 8.0 | 13.0 | 0.00 | 0.00 | 0.00 | 32 | 1018.5 |
| 20260906151005 | 93 | 126 | 7.0 | 12.0 | 0.00 | 0.00 | 0.00 | 31 | 1018.6 |
| 20260906150006 | 93 | 124 | 9.0 | 13.0 | 0.00 | 0.00 | 0.00 | 33 | 1018.6 |
| 20260906145004 | 95 | 113 | 9.0 | 14.0 | 0.00 | 0.00 | 0.00 | 30 | 1018.6 |
| 20260906144005 | 95 | 130 | 10.0 | 14.0 | 0.00 | 0.00 | 0.00 | 30 | 1018.5 |
| 20260906143007 | 94 | 123 | 11.0 | 17.0 | 0.00 | 0.00 | 0.00 | 33 | 1018.6 |
| 20260906142004 | 95 | 124 | 9.0 | 15.0 | 0.00 | 0.00 | 0.00 | 31 | 1018.6 |
| 20260906135005 | 93 | 128 | 11.0 | 17.0 | 0.00 | 0.00 | 0.00 | 35 | 1018.8 |
| 20260906134005 | 93 | 122 | 10.0 | 15.0 | 0.00 | 0.00 | 0.00 | 31 | 1018.8 |
| 20260906133024 | 94 | 133 | 9.0 | 14.0 | 0.00 | 0.00 | 0.00 | 30 | 1018.9 |
| 20260906132004 | 95 | 136 | 8.0 | 13.0 | 0.00 | 0.00 | 0.00 | 31 | 1019.0 |
| 20260906131005 | 94 | 125 | 7.0 | 11.0 | 0.00 | 0.00 | 0.00 | 32 | 1019.1 |
| 20260906130006 | 94 | 122 | 7.0 | 11.0 | 0.00 | 0.00 | 0.00 | 31 | 1019.1 |
| 20260906124006 | 95 | 106 | 6.0 | 10.0 | 0.00 | 0.00 | 0.00 | 25 | 1019.2 |
| 20260906123006 | 95 | 123 | 7.0 | 10.0 | 0.00 | 0.00 | 0.00 | 26 | 1019.3 |
| 20260906122004 | 95 | 136 | 8.0 | 11.0 | 0.00 | 0.00 | 0.00 | 24 | 1019.3 |
| 20260906121006 | 96 | 134 | 7.0 | 10.0 | 0.00 | 0.00 | 0.00 | 21 | 1019.4 |
| 20260906120006 | 97 | 125 | 7.0 | 12.0 | 0.00 | 0.00 | 0.00 | 23 | 1019.4 |
| 20260906115006 | 99 | 117 | 5.0 | 9.0 | 0.00 | 0.00 | 0.00 | 25 | 1019.4 |
| 20260906114005 | 100 | 119 | 5.0 | 8.0 | 0.00 | 0.00 | 0.00 | 23 | 1019.4 |
| 20260906113007 | 99 | 74 | 5.0 | 7.0 | 0.00 | 0.00 | 0.00 | 19 | 1019.5 |
| 20260906110007 | 97 | 264 | 2.0 | 4.0 | 0.00 | 0.00 | 0.00 | 21 | 1019.9 |
| 20260906105006 | 96 | 169 | 3.0 | 5.0 | 0.00 | 0.00 | 0.00 | 22 | 1020.0 |
| 20260906103007 | 96 | 136 | 3.0 | 5.0 | 0.00 | 0.00 | 0.00 | 23 | 1020.2 |
| 20260906101005 | 96 | 147 | 2.0 | 4.0 | 0.00 | 0.00 | 0.00 | 24 | 1020.3 |
| 20260906100005 | 95 | 337 | 2.0 | 4.0 | 0.00 | 0.00 | 0.00 | 23 | 1020.4 |
| 20260906095004 | 94 | 257 | 2.0 | 4.0 | 0.00 | 0.00 | 0.00 | 26 | 1020.4 |
| 20260906094006 | 94 | 199 | 2.0 | 4.0 | 0.00 | 0.00 | 0.00 | 26 | 1020.5 |
| 20260906093005 | 94 | 334 | 2.0 | 3.0 | 0.00 | 0.00 | 0.00 | 26 | 1020.4 |
| 20260906092005 | 93 | 312 | 3.0 | 5.0 | 0.00 | 0.00 | 0.00 | 26 | 1020.5 |
| 20260906091005 | 91 | 311 | 2.0 | 4.0 | 0.00 | 0.00 | 0.00 | 28 | 1020.5 |
| 20260906090006 | 89 | 273 | 2.0 | 4.0 | 0.00 | 0.00 | 0.00 | 31 | 1020.5 |
| 20260906085005 | 88 | 258 | 2.0 | 3.0 | 0.00 | 0.00 | 0.00 | 33 | 1020.5 |
| 20260906084005 | 87 | 241 | 3.0 | 5.0 | 0.00 | 0.00 | 0.00 | 35 | 1020.5 |
| 20260906083006 | 86 | 263 | 3.0 | 5.0 | 0.00 | 0.00 | 0.00 | 37 | 1020.5 |
| 20260906082006 | 85 | 259 | 3.0 | 5.0 | 0.00 | 0.00 | 0.00 | 37 | 1020.4 |
| 20260906081005 | 84 | 259 | 3.0 | 5.0 | 0.00 | 0.00 | 0.00 | 38 | 1020.3 |
| 20260906080005 | 84 | 246 | 3.0 | 5.0 | 0.00 | 0.00 | 0.00 | 38 | 1020.3 |
| 20260906075005 | 83 | 257 | 3.0 | 5.0 | 0.00 | 0.00 | 0.00 | 39 | 1020.3 |
| 20260906074006 | 82 | 276 | 4.0 | 6.0 | 0.00 | 0.00 | 0.00 | 40 | 1020.3 |
| 20260906073007 | 81 | 284 | 3.0 | 6.0 | 0.00 | 0.00 | 0.00 | 42 | 1020.2 |
| 20260906071005 | 78 | 259 | 2.0 | 3.0 | 0.00 | 0.00 | 0.00 | 49 | 1020.3 |
| 20260906070006 | 77 | 255 | 2.0 | 4.0 | 0.00 | 0.00 | 0.00 | 53 | 1020.3 |
| 20260906065005 | 76 | 242 | 1.0 | 2.0 | 0.00 | 0.00 | 0.00 | 53 | 1020.2 |
| 20260906064007 | 74 | 260 | 1.0 | 3.0 | 0.00 | 0.00 | 0.00 | 55 | 1020.2 |
| 20260906063006 | 74 | 269 | 2.0 | 3.0 | 0.00 | 0.00 | 0.00 | 56 | 1020.2 |
| 20260906062004 | 73 | 258 | 3.0 | 5.0 | 0.00 | 0.00 | 0.00 | 56 | 1020.2 |
| 20260906061005 | 72 | 258 | 3.0 | 6.0 | 0.00 | 0.00 | 0.00 | 57 | 1020.1 |
| 20260906055006 | 72 | 265 | 2.0 | 4.0 | 0.00 | 0.00 | 0.00 | 60 | 1020.0 |
| 20260906054004 | 72 | 258 | 2.0 | 3.0 | 0.00 | 0.00 | 0.00 | 61 | 1019.8 |
| 20260906053009 | 73 | 267 | 1.0 | 3.0 | 0.00 | 0.00 | 0.00 | 60 | 1019.7 |
| 20260906052005 | 73 | 274 | 3.0 | 5.0 | 0.00 | 0.00 | 0.00 | 59 | 1019.6 |
| 20260906051005 | 73 | 269 | 3.0 | 6.0 | 0.00 | 0.00 | 0.00 | 59 | 1019.6 |
| 20260906050007 | 74 | 282 | 3.0 | 6.0 | 0.00 | 0.00 | 0.00 | 58 | 1019.5 |
| 20260906045005 | 74 | 282 | 3.0 | 6.0 | 0.00 | 0.00 | 0.00 | 59 | 1019.5 |
| 20260906044006 | 73 | 272 | 3.0 | 5.0 | 0.00 | 0.00 | 0.00 | 60 | 1019.5 |
| 20260906043005 | 73 | 285 | 1.0 | 2.0 | 0.00 | 0.00 | 0.00 | 61 | 1019.6 |
| 20260906042012 | 73 | 259 | 4.0 | 5.0 | 0.00 | 0.00 | 0.00 | 61 | 1019.7 |
| 20260906041004 | 73 | 262 | 4.0 | 6.0 | 0.00 | 0.00 | 0.00 | 61 | 1019.7 |
| 20260906040005 | 73 | 266 | 3.0 | 4.0 | 0.00 | 0.00 | 0.00 | 62 | 1019.6 |
| 20260906034023 | 72 | 235 | 2.0 | 4.0 | 0.00 | 0.00 | 0.00 | 67 | 1019.7 |
| 20260906033026 | 73 | 244 | 2.0 | 3.0 | 0.00 | 0.00 | 0.00 | 66 | 1019.7 |
| 20260906032005 | 73 | 238 | 2.0 | 3.0 | 0.00 | 0.00 | 0.00 | 65 | 1019.7 |
| 20260906031023 | 74 | 266 | 2.0 | 4.0 | 0.00 | 0.00 | 0.00 | 63 | 1019.7 |
| 20260906025022 | 75 | 267 | 3.0 | 5.0 | 0.00 | 0.00 | 0.00 | 63 | 1019.8 |
| 20260906024031 | 76 | 274 | 3.0 | 5.0 | 0.00 | 0.00 | 0.00 | 62 | 1019.7 |
| 20260906022032 | 76 | 288 | 3.0 | 5.0 | 0.00 | 0.00 | 0.00 | 62 | 1019.8 |
| 20260906021028 | 76 | 290 | 3.0 | 5.0 | 0.00 | 0.00 | 0.00 | 62 | 1019.9 |
| 20260906020032 | 76 | 295 | 3.0 | 5.0 | 0.00 | 0.00 | 0.00 | 63 | 1019.9 |
| 20260906015017 | 76 | 304 | 2.0 | 4.0 | 0.00 | 0.00 | 0.00 | 63 | 1020.1 |
| 20260906014022 | 76 | 281 | 2.0 | 3.0 | 0.00 | 0.00 | 0.00 | 64 | 1020.1 |
| 20260906013025 | 76 | 271 | 2.0 | 3.0 | 0.00 | 0.00 | 0.00 | 64 | 1020.2 |
| 20260906012039 | 76 | 271 | 2.0 | 3.0 | 0.00 | 0.00 | 0.00 | 65 | 1020.2 |
| 20260906011019 | 77 | 271 | 0.0 | 2.0 | 0.00 | 0.00 | 0.00 | 66 | 1020.2 |
| 20260906010025 | 76 | 264 | 1.0 | 2.0 | 0.00 | 0.00 | 0.00 | 66 | 1020.3 |
| 20260906005024 | 77 | 270 | 2.0 | 4.0 | 0.00 | 0.00 | 0.00 | 65 | 1020.3 |
| 20260906004030 | 77 | 273 | 2.0 | 3.0 | 0.00 | 0.00 | 0.00 | 66 | 1020.3 |
| 20260906003032 | 78 | 265 | 2.0 | 4.0 | 0.00 | 0.00 | 0.00 | 65 | 1020.3 |
| 20260906002041 | 78 | 286 | 3.0 | 6.0 | 0.00 | 0.00 | 0.00 | 64 | 1020.3 |
| 20260906001024 | 78 | 279 | 4.0 | 6.0 | 0.00 | 0.00 | 0.00 | 64 | 1020.3 |
| 20260906000034 | 78 | 293 | 3.0 | 5.0 | 0.00 | 0.00 | 0.00 | 64 | 1020.3 |
| 20260905235024 | 78 | 282 | 2.0 | 4.0 | 0.00 | 0.00 | 0.00 | 65 | 1020.3 |
| 20260905234027 | 79 | 295 | 3.0 | 5.0 | 0.00 | 0.00 | 0.00 | 64 | 1020.3 |
| 20260905233004 | 79 | 300 | 4.0 | 6.0 | 0.00 | 0.00 | 0.00 | 64 | 1020.4 |
| 20260905232004 | 79 | 297 | 5.0 | 8.0 | 0.00 | 0.00 | 0.00 | 64 | 1020.4 |
| 20260905230006 | 79 | 304 | 4.0 | 8.0 | 0.00 | 0.00 | 0.00 | 64 | 1020.5 |
| 20260905225004 | 80 | 297 | 4.0 | 7.0 | 0.00 | 0.00 | 0.00 | 64 | 1020.6 |
| 20260905224005 | 80 | 304 | 5.0 | 9.0 | 0.00 | 0.00 | 0.00 | 64 | 1020.6 |
| 20260905223005 | 80 | 283 | 4.0 | 6.0 | 0.00 | 0.00 | 0.00 | 65 | 1020.7 |
| 20260905222004 | 80 | 278 | 3.0 | 4.0 | 0.00 | 0.00 | 0.00 | 65 | 1020.7 |
| 20260905221004 | 80 | 302 | 5.0 | 7.0 | 0.00 | 0.00 | 0.00 | 65 | 1020.6 |
| 20260905220009 | 80 | 308 | 7.0 | 10.0 | 0.00 | 0.00 | 0.00 | 65 | 1020.6 |
| 20260905215005 | 81 | 277 | 4.0 | 6.0 | 0.00 | 0.00 | 0.00 | 65 | 1020.8 |
| 20260905214005 | 82 | 297 | 2.0 | 3.0 | 0.00 | 0.00 | 0.00 | 63 | 1020.7 |
| 20260905213004 | 82 | 314 | 3.0 | 4.0 | 0.00 | 0.00 | 0.00 | 64 | 1020.7 |
| 20260905212004 | 82 | 334 | 1.0 | 2.0 | 0.00 | 0.00 | 0.00 | 64 | 1020.7 |
| 20260905211004 | 82 | 28 | 3.0 | 5.0 | 0.00 | 0.00 | 0.00 | 64 | 1020.6 |
| 20260905210008 | 82 | 28 | 5.0 | 6.0 | 0.00 | 0.00 | 0.00 | 64 | 1020.6 |
| 20260905204009 | 82 | 15 | 4.0 | 6.0 | 0.00 | 0.00 | 0.00 | 65 | 1020.7 |
| 20260905203023 | 82 | 27 | 4.0 | 7.0 | 0.00 | 0.00 | 0.00 | 64 | 1020.8 |
| 20260905201004 | 82 | 14 | 4.0 | 7.0 | 0.00 | 0.00 | 0.00 | 64 | 1020.8 |
| 20260905200006 | 82 | 31 | 4.0 | 6.0 | 0.00 | 0.00 | 0.00 | 66 | 1020.7 |
| 20260905195004 | 83 | 22 | 4.0 | 7.0 | 0.00 | 0.00 | 0.00 | 67 | 1020.6 |
| 20260905193006 | 83 | 8 | 4.0 | 6.0 | 0.00 | 0.00 | 0.00 | 66 | 1020.6 |
| 20260905192004 | 83 | 14 | 5.0 | 8.0 | 0.00 | 0.00 | 0.00 | 66 | 1020.5 |